SCP
0 0 0 0 0 0 0 0 0 0 0 0 0 0 0 0 0 0 0 0 0 0 0 0 1 0 0 0 0 0 0 0 0 0 0 0 0 0 0 0 0 0 0
0 0 0 0 0 0 0 0 0 0 0 0 0 0 0 0 0 0 0 0 0 0 0 0 0 0 0 0 0 0 0 0 0 0 0 0 0 0 0 0 0 0 0
0 0 0 0 0 0 0 0 0 0 0 0 0 0 0 0 0 0 0 0 0 0 0 0 0 0 0 0 0 0 0 0 0 0 0 0 0 0 0 0 0 0 0
0 0 0 0 0 0 0 0 0 0 0 0 0 0 0 0 0 0 0 0 0 0 0 0 0 0 0 0 0 0 0 0 0 0 0 0 0 0 0 0 0 0 0
0 0 0 0 0 0 0 0 0 0 0 0 0 0 0 0 0 0 0 0 0 0 0 0 0 -0 -0 0 0 0 0 0 0 0 0 0 0 0 0 0 0 0 0
0 0 0 0 0 0 0 0 0 0 0 0 0 0 -0 0 0 0 0 0 0 0 0 0 0 0 0 0 0 0 0 0 0 0 0 0 0 0 0 0 0 0 0
0 0 0 0 0 0 0 0 0 0 0 0 0 0 -0 0 0 0 0 0 0 0 0 0 0 0 0 0 0 0 0 0 0 0 0 0 0 0 0 0 0 0 0
-0 -0 -0 0 0 0 0 0 0 0 0 0 0 0 0 0 0 0 0 0 0 0 0 0 0 0 0 0 0 0 0 0 0 0 0 0 0 0 0 0 0 0 0
0 0 0 0 0 0 0 0 0 0 0 0 0 0 0 0 0 0 0 0 0 0 0 0 0 0 0 0 0 0 0 0 0 0 0 0 0 0 0 0 0 0 0
0 0 0 0 0 0 0 0 0 0 0 0 0 0 0 0 0 0 0 0 0 0 0 0 0 0 0 0 0 0 0 0 0 0 0 0 0 0 0 0 0 0 0
0 0 0 0 -0 0 -0 -0 0 -0 0 0 0 0 0 0 0 0 0 0 0 0 0 0 0 0 0 -0 0 0 0 0 0 0 0 0 0 0 0 0 0 0 0
0 0 0 0 0 0 0 0 -0 -0 -0 0 0 0 0 0 0 -0 -0 0 0 0 0 0 0 0 0 0 0 0 0 0 0 0 0 0 0 0 0 0 0 0 0
0 -0 -0 -0 0 0 0 0 0 0 -0 -0 -0 0 0 0 0 0 0 0 0 0 0 0 -0 -0 0 0 0 0 0 0 0 0 0 0 0 0 0 0 0 0 0
0 -0 -0 -0 0 0 0 0 0 0 0 0 0 0 0 0 0 0 0 0 0 0 0 0 0 0 0 0 0 0 0 0 0 0 0 0 0 0 0 0 0 0 0
0 0 0 0 0 -0 0 0 0 0 0 0 0 0 0 0 0 0 0 0 0 0 0 -0 0 0 0 0 0 0 0 0 0 0 0 0 0 0 0 0 0 0 0
0 -0 0 0 0 0 0 0 0 0 0 0 0 0 0 0 0 0 0 0 0 -0 -0 -0 0 0 0 0 0 0 0 -0 -0 -0 -0 -0 0 0 0 0 0 -0 -0
0 0 0 0 0 0 0 0 0 0 0 0 0 0 0 0 0 0 0 0 -0 -0 -0 0 0 0 0 0 -0 -0 -0 -0 0 -0 -0 -0 0 0 0 0 0 -0 -0
0 0 0 0 0 0 0 0 0 0 0 0 0 0 0 0 0 -0 0 0 -0 -0 -0 -0 -0 -0 -0 -0 -0 -0 0 0 0 -0 -0 -0 -0 0 0 0 0 0 0
0 0 0 0 0 0 0 0 -0 0 0 0 0 0 0 0 0 0 0 0 0 0 0 0 -0 0 0 0 0 0 0 0 0 -0 -0 -0 -0 -0 0 0 0 0 0
0 0 0 0 0 0 -0 0 0 0 0 0 0 0 0 0 0 0 0 0 0 0 0 0 0 0 0 0 0 0 0 0 0 0 0 0 0 -0 -0 -0 0 0 0
0 0 0 0 0 -0 0 0 0 0 0 0 0 0 0 0 0 0 0 0 0 0 0 0 0 0 0 0 0 0 0 0 0 0 0 0 0 0 0 0 0 0 0
0 0 0 0 -0 0 0 0 0 0 0 0 0 0 0 0 0 0 0 0 0 0 0 -0 -0 -0 0 -0 -0 -0 0 0 0 0 0 0 0 0 0 0 0 0 0
0 0 -0 -0 -0 0 0 0 0 0 0 0 0 -0 0 0 0 0 0 0 0 0 0 -0 -0 -0 -0 -0 -0 -0 0 0 0 0 0 0 0 0 0 0 0 0 0
-0 -0 -0 -0 -0 -0 0 0 0 0 0 0 0 0 0 0 0 -0 0 0 0 0 0 -0 -0 -0 -0 -0 0 0 0 0 0 0 0 0 0 0 0 0 0 0 0
-0 -0 -0 0 0 0 0 0 0 0 0 0 0 0 0 0 0 -0 0 0 0 -0 0 0 0 0 0 0 0 0 0 0 0 0 0 0 0 0 0 0 0 0 0
-0 -0 -0 0 0 0 0 -0 -0 0 0 0 -0 0 0 0 0 -0 -0 0 -0 -0 -0 -0 -0 0 0 0 0 0 0 0 0 0 0 0 0 0 0 0 0 0 0
Wind_Speed_500mb
30 30 34 29 23 29 35 21 19 26 17 20 20 32 50 57 54 53 51 53 51 51 48 31 23 24 28 26 22 19 16 13 12 13 12 11 9 8 7 7 7 6 6
33 37 33 28 30 34 34 39 25 19 20 27 41 41 38 38 40 45 57 68 68 64 53 50 30 34 36 25 24 22 18 13 12 12 11 10 9 10 10 10 9 10 10
45 45 39 31 28 39 42 48 47 42 39 25 41 43 39 39 43 34 37 49 50 52 52 34 35 70 34 33 34 27 19 14 14 13 14 12 10 11 11 10 10 11 11
48 41 36 31 32 40 32 32 33 35 37 45 42 30 42 38 41 44 38 38 53 63 63 53 55 59 49 51 43 32 20 16 15 15 14 11 9 7 9 10 11 14 16
46 35 32 30 33 38 40 36 37 34 36 42 55 43 32 37 53 44 39 42 37 41 51 55 52 50 48 43 41 34 20 19 18 17 14 11 8 8 12 16 17 20 21
40 29 29 27 29 41 31 28 31 34 32 34 35 45 54 50 31 47 41 41 40 32 40 43 42 44 46 50 44 18 23 22 21 18 16 13 10 11 15 19 22 21 23
36 37 37 33 29 32 35 35 33 33 32 29 33 42 39 47 32 49 37 44 41 39 36 43 41 37 43 50 29 30 22 24 21 18 18 13 11 15 19 23 24 24 25
33 31 35 32 31 35 33 34 35 30 30 27 36 33 32 39 35 37 52 45 44 39 42 43 36 38 41 41 35 29 26 25 21 18 14 13 16 19 23 26 27 26 24
35 31 40 33 28 25 24 28 27 28 31 27 27 28 14 15 20 33 39 41 38 43 42 52 45 42 45 38 29 30 29 24 21 19 19 18 21 23 27 27 29 27 23
39 40 32 38 30 22 21 19 17 16 16 21 21 25 31 39 18 11 26 36 38 38 37 27 36 40 38 37 35 31 26 25 24 23 21 21 24 28 30 29 26 21 21
43 41 30 38 37 34 24 19 17 19 13 18 20 21 19 18 19 12 21 21 23 29 27 38 35 38 33 40 36 31 26 28 26 24 24 26 29 31 31 26 19 18 12
36 38 37 41 40 41 25 15 16 14 13 7 17 14 8 8 4 7 14 12 23 34 31 28 40 21 31 29 21 21 24 27 24 25 28 32 32 31 27 19 15 9 7
30 35 41 41 39 37 31 21 14 17 13 12 10 5 7 6 7 2 14 22 30 23 16 25 23 21 18 23 18 13 12 16 21 28 34 34 31 27 18 13 10 8 6
23 27 32 35 34 30 32 34 30 26 28 19 18 15 20 6 6 18 32 26 22 18 17 8 19 11 12 5 4 15 16 17 20 20 20 21 17 12 12 13 9 5 5
18 24 25 31 30 31 33 33 29 30 25 26 26 23 25 29 27 24 20 26 11 13 18 27 23 19 11 6 2 5 14 7 5 4 5 6 7 9 9 9 9 7 7
23 20 24 24 26 23 27 31 35 32 33 31 25 28 25 35 31 27 25 19 21 23 20 25 21 19 16 6 1 2 1 7 5 7 11 9 8 11 11 9 7 6 6
20 18 19 17 21 25 28 33 28 27 25 27 26 23 28 28 29 26 24 15 22 19 21 17 12 7 8 13 6 5 4 4 7 9 14 16 13 7 5 4 4 5 3
13 20 15 16 23 29 29 20 19 20 18 23 21 19 17 18 19 18 11 20 20 15 21 24 8 7 5 5 3 5 4 4 11 10 10 11 8 6 6 6 6 6 5
20 14 9 8 10 18 14 21 24 25 26 18 16 12 13 12 19 23 22 20 22 14 14 10 11 1 2 5 6 15 9 6 6 14 14 15 7 10 13 17 15 13 13
25 26 20 16 17 10 4 14 18 21 25 26 28 19 18 20 25 23 19 15 13 14 10 3 4 3 1 6 5 13 17 17 13 16 17 10 16 18 15 12 18 23 21
21 26 26 22 19 14 13 15 23 23 19 23 22 31 32 29 26 29 28 25 15 8 8 11 10 4 5 1 8 7 14 19 16 8 10 17 28 30 23 27 29 24 31
8 11 20 17 11 18 16 13 12 19 20 13 17 15 22 23 18 20 19 20 20 19 17 13 10 8 5 8 10 12 13 18 13 8 18 18 23 33 30 17 18 26 31
10 9 9 11 16 14 14 15 17 16 17 21 19 17 15 10 16 13 9 13 12 12 13 18 13 13 11 11 15 19 16 15 11 12 23 24 13 18 20 17 22 12 11
12 6 7 8 11 11 7 10 11 12 13 7 6 7 10 11 11 10 13 9 15 15 14 19 24 17 17 20 21 20 10 18 29 26 22 17 15 15 18 18 11 9 16
12 4 3 6 10 11 7 4 4 3 5 7 11 5 3 8 11 13 10 9 5 9 11 9 16 15 14 22 15 8 7 10 17 17 2 14 15 18 15 17 17 12 11
17 11 14 13 16 17 11 10 11 8 21 1 14 12 16 13 13 11 13 15 17 17 10 4 4 12 15 19 14 11 8 17 13 18 17 23 15 19 15 13 10 10 7
Wind_Direction_500mb
294 298 277 269 263 283 281 273 265 292 298 317 296 279 265 254 249 247 248 249 257 262 254 242 237 233 245 230 231 221 216 224 228 227 226 228 226 219 226 241 265 283 291
298 299 288 279 262 285 273 264 239 256 291 299 291 291 287 285 280 269 258 254 254 256 258 238 246 262 267 218 228 225 228 224 242 239 224 209 218 230 240 245 258 271 284
311 308 296 268 273 273 281 271 264 262 270 272 283 278 277 271 277 274 257 248 242 231 244 219 260 263 229 257 233 231 229 245 240 223 216 211 218 237 247 253 266 279 289
312 308 302 284 277 291 269 273 267 270 266 268 264 271 273 267 264 275 277 272 243 242 236 247 256 242 245 225 220 214 231 239 219 218 212 205 208 232 264 274 281 287 292
321 300 305 299 288 300 290 277 266 265 262 265 267 273 269 276 258 256 266 265 256 251 241 232 243 242 222 214 190 197 227 226 218 215 207 207 217 249 276 287 289 293 298
331 342 317 309 302 308 303 286 285 274 268 273 278 271 263 263 269 246 248 257 258 255 237 232 229 227 218 208 191 202 218 212 208 205 210 219 240 272 285 290 294 301 302
340 338 327 313 292 297 295 304 299 285 276 275 277 276 268 268 267 241 243 248 246 250 242 233 229 231 216 209 186 185 209 204 206 209 218 229 257 286 293 293 300 305 305
342 342 325 315 302 290 280 282 284 289 287 272 269 284 281 280 251 263 245 242 240 232 238 230 223 224 205 185 186 204 193 191 199 215 234 257 272 292 293 294 300 304 307
342 341 343 340 331 315 299 289 285 283 284 281 254 255 274 257 281 240 229 241 234 234 231 239 218 191 183 182 196 208 194 192 205 226 249 264 276 287 289 296 298 302 303
353 353 343 349 334 340 335 322 310 306 302 295 281 262 258 259 285 306 235 249 242 233 223 206 205 189 185 188 191 195 211 212 223 234 258 269 282 291 291 293 294 292 300
353 350 357 5 9 356 321 312 312 309 305 310 288 287 275 265 248 287 267 201 181 192 175 196 173 171 166 179 195 198 201 218 228 246 261 274 285 290 292 285 278 283 294
347 358 2 359 359 0 355 342 312 319 321 254 280 302 293 331 260 243 212 197 177 161 169 188 153 174 167 176 193 210 220 229 241 255 270 275 281 287 282 261 254 260 263
346 350 355 360 3 20 14 19 42 8 331 288 310 44 52 69 334 51 172 138 142 155 157 148 160 163 193 192 209 213 253 261 277 284 279 276 274 266 248 232 217 228 258
343 352 355 359 8 23 35 54 45 55 54 70 87 70 68 66 80 96 132 127 122 120 115 227 152 166 118 140 232 295 285 285 300 282 272 254 247 222 206 202 210 238 283
8 342 356 3 14 37 48 45 42 42 47 68 71 78 62 72 88 103 104 104 103 142 144 174 144 124 144 137 266 166 247 255 314 297 286 254 215 209 221 240 253 273 297
352 358 16 3 18 28 34 45 41 42 48 53 65 56 75 79 89 90 87 116 88 125 124 139 160 167 161 201 212 280 154 98 33 25 12 358 283 257 259 264 255 258 270
0 33 10 3 35 27 36 37 35 25 44 51 55 64 60 74 73 69 68 80 117 125 129 131 128 82 164 165 248 289 284 268 299 327 337 336 336 290 248 221 208 205 232
56 40 10 44 41 40 22 28 43 43 54 47 47 57 68 77 69 88 114 94 93 110 119 131 119 52 57 67 69 77 57 213 283 314 296 320 307 279 254 242 235 238 258
25 22 8 25 10 23 22 44 52 46 59 61 55 70 85 76 87 80 76 90 101 75 106 127 137 136 39 25 339 345 326 295 297 280 277 274 297 325 292 270 270 260 261
28 27 25 75 37 359 41 87 67 61 55 60 45 72 81 90 84 80 79 76 102 90 111 121 49 203 241 346 315 323 353 325 287 275 280 285 292 304 289 309 274 263 262
8 24 40 61 45 2 110 94 83 74 72 82 60 65 72 84 74 65 63 63 53 74 74 58 44 142 97 73 318 333 344 332 306 298 264 257 284 285 287 271 277 264 254
36 34 33 35 18 59 80 81 89 77 71 80 74 68 71 69 57 55 54 60 49 42 35 25 21 5 5 313 324 329 333 344 328 249 310 327 309 295 270 277 298 279 268
359 79 48 23 25 43 60 72 77 75 66 50 42 53 82 29 44 29 31 36 24 12 10 0 355 345 339 355 339 331 323 323 317 295 286 300 326 302 271 323 331 336 247
348 82 36 39 353 12 41 81 68 85 78 106 60 57 11 5 1 0 16 42 21 357 347 342 343 317 317 316 313 323 347 339 336 341 265 282 343 326 296 301 307 295 280
326 303 244 296 305 313 319 323 73 56 336 9 324 259 273 327 335 320 320 332 323 334 345 324 322 352 359 359 337 301 319 341 349 355 278 298 350 317 301 285 296 294 289
320 300 298 288 270 306 285 264 265 312 358 345 350 238 262 317 330 321 315 299 293 286 297 263 16 310 309 333 346 353 341 328 332 335 323 324 293 331 306 276 286 305 259
Wind_Speed_850mb
30 30 34 29 23 29 35 21 19 26 17 20 20 32 50 57 54 53 51 53 51 51 48 31 23 24 28 26 22 19 16 13 12 13 12 11 9 8 7 7 7 6 6
33 37 33 28 30 34 34 39 25 19 20 27 41 41 38 38 40 45 57 68 68 64 53 50 30 34 36 25 24 22 18 13 12 12 11 10 9 10 10 10 9 10 10
45 45 39 31 28 39 42 48 47 42 39 25 41 43 39 39 43 34 37 49 50 52 52 34 35 70 34 33 34 27 19 14 14 13 14 12 10 11 11 10 10 11 11
48 41 36 31 32 40 32 32 33 35 37 45 42 30 42 38 41 44 38 38 53 63 63 53 55 59 49 51 43 32 20 16 15 15 14 11 9 7 9 10 11 14 16
46 35 32 30 33 38 40 36 37 34 36 42 55 43 32 37 53 44 39 42 37 41 51 55 52 50 48 43 41 34 20 19 18 17 14 11 8 8 12 16 17 20 21
40 29 29 27 29 41 31 28 31 34 32 34 35 45 54 50 31 47 41 41 40 32 40 43 42 44 46 50 44 18 23 22 21 18 16 13 10 11 15 19 22 21 23
36 37 37 33 29 32 35 35 33 33 32 29 33 42 39 47 32 49 37 44 41 39 36 43 41 37 43 50 29 30 22 24 21 18 18 13 11 15 19 23 24 24 25
33 31 35 32 31 35 33 34 35 30 30 27 36 33 32 39 35 37 52 45 44 39 42 43 36 38 41 41 35 29 26 25 21 18 14 13 16 19 23 26 27 26 24
35 31 40 33 28 25 24 28 27 28 31 27 27 28 14 15 20 33 39 41 38 43 42 52 45 42 45 38 29 30 29 24 21 19 19 18 21 23 27 27 29 27 23
39 40 32 38 30 22 21 19 17 16 16 21 21 25 31 39 18 11 26 36 38 38 37 27 36 40 38 37 35 31 26 25 24 23 21 21 24 28 30 29 26 21 21
43 41 30 38 37 34 24 19 17 19 13 18 20 21 19 18 19 12 21 21 23 29 27 38 35 38 33 40 36 31 26 28 26 24 24 26 29 31 31 26 19 18 12
36 38 37 41 40 41 25 15 16 14 13 7 17 14 8 8 4 7 14 12 23 34 31 28 40 21 31 29 21 21 24 27 24 25 28 32 32 31 27 19 15 9 7
30 35 41 41 39 37 31 21 14 17 13 12 10 5 7 6 7 2 14 22 30 23 16 25 23 21 18 23 18 13 12 16 21 28 34 34 31 27 18 13 10 8 6
23 27 32 35 34 30 32 34 30 26 28 19 18 15 20 6 6 18 32 26 22 18 17 8 19 11 12 5 4 15 16 17 20 20 20 21 17 12 12 13 9 5 5
18 24 25 31 30 31 33 33 29 30 25 26 26 23 25 29 27 24 20 26 11 13 18 27 23 19 11 6 2 5 14 7 5 4 5 6 7 9 9 9 9 7 7
23 20 24 24 26 23 27 31 35 32 33 31 25 28 25 35 31 27 25 19 21 23 20 25 21 19 16 6 1 2 1 7 5 7 11 9 8 11 11 9 7 6 6
20 18 19 17 21 25 28 33 28 27 25 27 26 23 28 28 29 26 24 15 22 19 21 17 12 7 8 13 6 5 4 4 7 9 14 16 13 7 5 4 4 5 3
13 20 15 16 23 29 29 20 19 20 18 23 21 19 17 18 19 18 11 20 20 15 21 24 8 7 5 5 3 5 4 4 11 10 10 11 8 6 6 6 6 6 5
20 14 9 8 10 18 14 21 24 25 26 18 16 12 13 12 19 23 22 20 22 14 14 10 11 1 2 5 6 15 9 6 6 14 14 15 7 10 13 17 15 13 13
25 26 20 16 17 10 4 14 18 21 25 26 28 19 18 20 25 23 19 15 13 14 10 3 4 3 1 6 5 13 17 17 13 16 17 10 16 18 15 12 18 23 21
21 26 26 22 19 14 13 15 23 23 19 23 22 31 32 29 26 29 28 25 15 8 8 11 10 4 5 1 8 7 14 19 16 8 10 17 28 30 23 27 29 24 31
8 11 20 17 11 18 16 13 12 19 20 13 17 15 22 23 18 20 19 20 20 19 17 13 10 8 5 8 10 12 13 18 13 8 18 18 23 33 30 17 18 26 31
10 9 9 11 16 14 14 15 17 16 17 21 19 17 15 10 16 13 9 13 12 12 13 18 13 13 11 11 15 19 16 15 11 12 23 24 13 18 20 17 22 12 11
12 6 7 8 11 11 7 10 11 12 13 7 6 7 10 11 11 10 13 9 15 15 14 19 24 17 17 20 21 20 10 18 29 26 22 17 15 15 18 18 11 9 16
12 4 3 6 10 11 7 4 4 3 5 7 11 5 3 8 11 13 10 9 5 9 11 9 16 15 14 22 15 8 7 10 17 17 2 14 15 18 15 17 17 12 11
17 11 14 13 16 17 11 10 11 8 21 1 14 12 16 13 13 11 13 15 17 17 10 4 4 12 15 19 14 11 8 17 13 18 17 23 15 19 15 13 10 10 7
Wind_Direction_850mb
294 298 277 269 263 283 281 273 265 292 298 317 296 279 265 254 249 247 248 249 257 262 254 242 237 233 245 230 231 221 216 224 228 227 226 228 226 219 226 241 265 283 291
298 299 288 279 262 285 273 264 239 256 291 299 291 291 287 285 280 269 258 254 254 256 258 238 246 262 267 218 228 225 228 224 242 239 224 209 218 230 240 245 258 271 284
311 308 296 268 273 273 281 271 264 262 270 272 283 278 277 271 277 274 257 248 242 231 244 219 260 263 229 257 233 231 229 245 240 223 216 211 218 237 247 253 266 279 289
312 308 302 284 277 291 269 273 267 270 266 268 264 271 273 267 264 275 277 272 243 242 236 247 256 242 245 225 220 214 231 239 219 218 212 205 208 232 264 274 281 287 292
321 300 305 299 288 300 290 277 266 265 262 265 267 273 269 276 258 256 266 265 256 251 241 232 243 242 222 214 190 197 227 226 218 215 207 207 217 249 276 287 289 293 298
331 342 317 309 302 308 303 286 285 274 268 273 278 271 263 263 269 246 248 257 258 255 237 232 229 227 218 208 191 202 218 212 208 205 210 219 240 272 285 290 294 301 302
340 338 327 313 292 297 295 304 299 285 276 275 277 276 268 268 267 241 243 248 246 250 242 233 229 231 216 209 186 185 209 204 206 209 218 229 257 286 293 293 300 305 305
342 342 325 315 302 290 280 282 284 289 287 272 269 284 281 280 251 263 245 242 240 232 238 230 223 224 205 185 186 204 193 191 199 215 234 257 272 292 293 294 300 304 307
342 341 343 340 331 315 299 289 285 283 284 281 254 255 274 257 281 240 229 241 234 234 231 239 218 191 183 182 196 208 194 192 205 226 249 264 276 287 289 296 298 302 303
353 353 343 349 334 340 335 322 310 306 302 295 281 262 258 259 285 306 235 249 242 233 223 206 205 189 185 188 191 195 211 212 223 234 258 269 282 291 291 293 294 292 300
353 350 357 5 9 356 321 312 312 309 305 310 288 287 275 265 248 287 267 201 181 192 175 196 173 171 166 179 195 198 201 218 228 246 261 274 285 290 292 285 278 283 294
347 358 2 359 359 0 355 342 312 319 321 254 280 302 293 331 260 243 212 197 177 161 169 188 153 174 167 176 193 210 220 229 241 255 270 275 281 287 282 261 254 260 263
346 350 355 360 3 20 14 19 42 8 331 288 310 44 52 69 334 51 172 138 142 155 157 148 160 163 193 192 209 213 253 261 277 284 279 276 274 266 248 232 217 228 258
343 352 355 359 8 23 35 54 45 55 54 70 87 70 68 66 80 96 132 127 122 120 115 227 152 166 118 140 232 295 285 285 300 282 272 254 247 222 206 202 210 238 283
8 342 356 3 14 37 48 45 42 42 47 68 71 78 62 72 88 103 104 104 103 142 144 174 144 124 144 137 266 166 247 255 314 297 286 254 215 209 221 240 253 273 297
352 358 16 3 18 28 34 45 41 42 48 53 65 56 75 79 89 90 87 116 88 125 124 139 160 167 161 201 212 280 154 98 33 25 12 358 283 257 259 264 255 258 270
0 33 10 3 35 27 36 37 35 25 44 51 55 64 60 74 73 69 68 80 117 125 129 131 128 82 164 165 248 289 284 268 299 327 337 336 336 290 248 221 208 205 232
56 40 10 44 41 40 22 28 43 43 54 47 47 57 68 77 69 88 114 94 93 110 119 131 119 52 57 67 69 77 57 213 283 314 296 320 307 279 254 242 235 238 258
25 22 8 25 10 23 22 44 52 46 59 61 55 70 85 76 87 80 76 90 101 75 106 127 137 136 39 25 339 345 326 295 297 280 277 274 297 325 292 270 270 260 261
28 27 25 75 37 359 41 87 67 61 55 60 45 72 81 90 84 80 79 76 102 90 111 121 49 203 241 346 315 323 353 325 287 275 280 285 292 304 289 309 274 263 262
8 24 40 61 45 2 110 94 83 74 72 82 60 65 72 84 74 65 63 63 53 74 74 58 44 142 97 73 318 333 344 332 306 298 264 257 284 285 287 271 277 264 254
36 34 33 35 18 59 80 81 89 77 71 80 74 68 71 69 57 55 54 60 49 42 35 25 21 5 5 313 324 329 333 344 328 249 310 327 309 295 270 277 298 279 268
359 79 48 23 25 43 60 72 77 75 66 50 42 53 82 29 44 29 31 36 24 12 10 0 355 345 339 355 339 331 323 323 317 295 286 300 326 302 271 323 331 336 247
348 82 36 39 353 12 41 81 68 85 78 106 60 57 11 5 1 0 16 42 21 357 347 342 343 317 317 316 313 323 347 339 336 341 265 282 343 326 296 301 307 295 280
326 303 244 296 305 313 319 323 73 56 336 9 324 259 273 327 335 320 320 332 323 334 345 324 322 352 359 359 337 301 319 341 349 355 278 298 350 317 301 285 296 294 289
320 300 298 288 270 306 285 264 265 312 358 345 350 238 262 317 330 321 315 299 293 286 297 263 16 310 309 333 346 353 341 328 332 335 323 324 293 331 306 276 286 305 259